Location: Góry Miechowskie
(50.3599°N, 20.1803°E)
Time: 19:25:56
(UTC+00:00)

Meteor 1-11 - Pass Details

Date: 08 September 2024
Orbit: 841 x 884 km, 81.2° (Epoch: 09 October)

Event Time Altitude Azimuth Distance (km) Brightness Sun altitude
Rises 00:37:48 0° 341° (NNW) 3,474 7.9 -28.3°
Reaches altitude 10° 00:40:25 10° 333° (NNW) 2,538 7.0 -28.1°
Enters shadow 00:44:01 30° 301° (WNW) 1,532 5.4 -27.7°
